Retour au catalogue

CZ-4 DEB

ActifSSO
NORAD 20866·DEBRIS·🇨🇳 China

Lancé Sep 3, 1990 depuis Taiyuan Satellite Launch Center

Loading…

Prochains Passages (prochaines 24 heures)

TLE

FraisSource: Space-Track

Époque: Sep 14, 2026, 10:37 UTC

1 20866U 90081AE  26257.44259362  .00000284  00000-0  18415-3 0  9993
2 20866  98.9504 236.8491 0070216  60.6823  91.6568 14.09340700840064

Suivez CZ-4 DEB en temps réel avec AllMySat

Download on the App Store